Flag for U.S.A. Weather past 2 weeks in Lowell, Massachusetts, U.S.A.

Now
71 °F

Clear.


Feels Like: 73 °F
Forecast: 65 / 86 °F
Wind: 10 mph from Southwest

Location: Hanscom Field

Current Time: May 27, 2015 at 10:19:14 PM

Latest Report: May 27, 2015 at 9:56 PM


Visibility: 10 mi

Pressure: 30.14 "Hg

Humidity: 76%

Dew point: 63 °F

Location of LowellLocation

Historic Weather in Lowell — Graph

°F

Lowell temperature yesterday

Maximum temperature yesterday: 86 °F (at 3:56 PM)
Minimum temperature yesterday: 65 °F (at 4:56 AM)
Average temperature yesterday: 74 °F

Past Weeks' High & Low Weather Summary

 TemperatureHumidityPressure
High88 °F (May 27, 1:56 PM)97% (May 15, 3:56 AM)30.35 "Hg (May 15, 3:56 AM)
Low37 °F (May 21, 5:56 AM)18% (May 14, 12:56 PM)29.73 "Hg (May 12, 8:56 PM)
Average62 °F57%30.10 "Hg
* Reported May 12 8:56 PM — May 27 8:56 PM, Lowell, Weather by CustomWeather, © 2015

Note: Actual official high and low records may vary slightly from our data, if they occured in-between our weather recording intervals... More about our weather records

Advertising

Lowell weather history for previous 24 hours

 ConditionsComfort  
Time TempWeatherWind HumidityBarometerVisibility
8:56 PM
Wed, May 27
72 °FPassing clouds.18 mph73%30.14 "Hg10 mi
7:56 PM74 °FSunny.16 mph69%30.13 "Hg10 mi
6:56 PM77 °FPartly sunny.15 mph66%30.10 "Hg10 mi
5:56 PM80 °FScattered clouds.18 mph62%30.08 "Hg10 mi
4:56 PM84 °FPassing clouds.17 mph55%30.07 "Hg10 mi
3:56 PM88 °FPassing clouds.18 mph46%30.06 "Hg10 mi
2:56 PM88 °FPassing clouds.20 mph45%30.09 "Hg10 mi
1:56 PM88 °FScattered clouds.17 mph46%30.10 "Hg10 mi
12:56 PM87 °FScattered clouds.16 mph48%30.12 "Hg10 mi
11:56 AM84 °FSunny.12 mph55%30.14 "Hg10 mi
10:56 AM81 °FSunny.14 mph58%30.15 "Hg10 mi
9:56 AM78 °FSunny.12 mph62%30.16 "Hg10 mi
8:56 AM74 °FSunny.10 mph69%30.17 "Hg10 mi
7:56 AM70 °FSunny.12 mph76%30.17 "Hg10 mi
6:56 AM67 °FSunny.9 mph81%30.18 "Hg10 mi
5:56 AM65 °FClear.9 mph85%30.17 "Hg10 mi
4:56 AM66 °FPassing clouds.10 mph81%30.16 "Hg10 mi
3:56 AM66 °FClear.10 mph78%30.15 "Hg10 mi
2:56 AM67 °FPassing clouds.8 mph76%30.16 "Hg10 mi
1:56 AM68 °FClear.8 mph76%30.16 "Hg10 mi
12:56 AM69 °FClear.8 mph76%30.16 "Hg10 mi
11:56 PM
Tue, May 26
70 °FClear.10 mph73%30.17 "Hg10 mi
10:56 PM71 °FClear.9 mph71%30.16 "Hg10 mi
Weather by CustomWeather, © 2015

See weather overviewHow to use our weather pages